Regional Weather Roundup
Issued by NWS Goodland, KS

Home | Current Version | Previous Version | Text Only | Print | Product List | Glossary Off
Versions: 1 2 3 4 5 6 7 8 9 10 11 12 13 14 15 16 17 18 19 20 21 22 23 24 25 26 27 28 29 30 31 32 33 34 35 36 37 38 39 40 41 42 43 44 45 46 47 48 49 50

000
ASUS43 KGLD 271359
RWRGLD

GOODLAND FORECAST AREA HOURLY WEATHER ROUNDUP
NATIONAL WEATHER SERVICE GOODLAND KS
700 AM MST THU NOV 27 2014

...OFFICIAL OBSERVATIONS...

CITY           SKY/WX    TMP DP  RH WIND       PRES   REMARKS
GOODLAND KS    CLEAR     24  17  74 S14       30.26F WCI  12
HILL CITY KS   PTCLDY    21  16  81 SE6       30.39R
IMPERIAL NEB   CLEAR     19  15  84 S6        30.22F
MCCOOK NEB     CLEAR     17  14  88 SE7       30.31F
AKRON CO       PTCLDY    34  24  67 SW13      30.19F
BURLINGTON CO  CLEAR     26  19  74 SW13      30.25F WCI  15
LIMON CO       CLOUDY    21  18  88 W5        30.25F
$$

...UNOFFICIAL OBSERVATIONS...

CITY           SKY/WX    TMP DP  RH WIND       PRES   REMARKS
COLBY KS       CLEAR     27  23  86 S13       30.29S WCI  16
GOVE KS          N/A     22  32 100 MISG        N/A
NORTON KS      CLEAR     19  14  79 SE9       30.35F
SHARON SPRINGS   N/A     26  19  75 S12         N/A  WCI  16
TRIBUNE KS     PTCLDY    27  23  86 S12       30.31F WCI  16
TRENTON NEB      N/A     21  32 100 SE8         N/A
YUMA CO          N/A     25  21  85 CALM        N/A
$$



USA.gov is the U.S. government's official web portal to all federal, state and local government web resources and services.